Overview Statistics Trail Chart Weather Telemetry Raw packets
 

This is the latest recevied weather packets stored in our database for station/object OK1FET-5. If no packets are shown the sender has not sent any weather packets the latest 10 day(s).

<< 39 40 41 42 43 44 45 >>
Time Temp. Humidity Pressure Rain* Wind** Luminosity Snow
1787950995 18.89° C 81% 1016 hPa - - - -
1787950399 18.89° C 83% 1016 hPa - - - -
1787949803 18.89° C 84% 1015.7 hPa - - - -
1787949208 18.89° C 86% 1015.5 hPa - - - -
1787948664 18.89° C 87% 1015.4 hPa - - - -
1787948612 18.89° C 87% 1015.4 hPa - - - -
1787948016 18.89° C 85% 1014.9 hPa - - - -
1787947420 19.44° C 80% 1014.6 hPa - - - -
1787946824 19.44° C 82% 1014.1 hPa - - - -
1787946229 19.44° C 84% 1014 hPa - - - -
1787945633 20° C 79% 1013.9 hPa - - - -
1787945037 20° C 76% 1013.9 hPa - - - -
1787944442 20° C 76% 1014 hPa - - - -
1787943846 19.44° C 77% 1014.2 hPa - - - -
1787943250 20° C 79% 1014.3 hPa - - - -
1787942654 20° C 82% 1014.5 hPa - - - -
1787942058 20° C 76% 1014.8 hPa - - - -
1787941463 20° C 76% 1014.6 hPa - - - -
1787940867 20° C 76% 1014.3 hPa - - - -
1787940271 20.56° C 74% 1014.8 hPa - - - -
1787939676 21.11° C 72% 1015 hPa - - - -
1787939080 21.67° C 70% 1015.1 hPa - - - -
1787938484 21.67° C 69% 1014.9 hPa - - - -
1787937888 22.22° C 68% 1014.9 hPa - - - -
1787937292 22.22° C 68% 1014.9 hPa - - - -

* Rain since midnight (hover to see other rain measurements)
** Current wind speed in m/s (hover to see current wind gust speed)